Regional Weather Roundup
Issued by NWS Charleston, SC

Current Version | Previous Version | Graphics & Text | Print | Product List | Glossary On
Versions: 1 2 3 4 5 6 7 8 9 10 11 12 13 14 15 16 17 18 19 20 21 22 23 24 25 26 27 28 29 30 31 32 33 34 35 36 37 38 39 40 41 42 43 44 45 46 47 48 49 50
000
ASUS42 KCHS 251327
RWRCHS

REGIONAL WEATHER ROUNDUP
NATIONAL WEATHER SERVICE CHARLESTON SC
900 AM EDT THU MAY 25 2017

NOTE: "FAIR" INDICATES FEW OR NO CLOUDS BELOW 12,000 FEET WITH NO
SIGNIFICANT WEATHER AND/OR OBSTRUCTIONS TO VISIBILITY.

NOT ALL STATIONS ARE QUALITY CONTROLLED. USE DATA WITH CAUTION...
ESPECIALLY DEWPOINT OBSERVATIONS.

SCZ027-030-031-034>040-042>050-251400-
...SOUTHEAST SOUTH CAROLINA...

CITY           SKY/WX    TMP DP  RH WIND       PRES   REMARKS
N CHARLESTON   CLOUDY    67  58  72 SW12      29.70R
WATERFRONT PRK   N/A     68  61  78 SW8G15    29.69R
JOHNS ISLAND   PTSUNNY   70  59  68 SW10G16   29.72R
PINOPOLIS        N/A     66  63  88 SW10G17   29.59R
MONCKS CORNER  CLOUDY    66  59  77 SW8G17    29.70R
SUMMERVILLE    PTSUNNY   63  59  88 SW6       29.70S
BEAUFORT MCAS  PTSUNNY   67  59  75 SW15      29.72S
BEAUFORT ARPT  CLOUDY    68  55  64 SW14      29.73R
HILTON HEAD IS PTSUNNY   68  57  68 SW14G21   29.74R
WALTERBORO     PTSUNNY   64  59  82 SW15      29.72S
ALLENDALE      FAIR      64  57  77 VRB7G14   29.70R

...SOUTHERN MIDLANDS AND PEE DEE...

CITY           SKY/WX    TMP DP  RH WIND       PRES   REMARKS
GEORGETOWN     FAIR      66  61  82 SW13      29.69R
KINGSTREE      FAIR      68  55  64 SW12G20   29.67R
ORANGEBURG     SUNNY     65  59  81 SW14      29.67R
BARNWELL       PTSUNNY   66  61  82 SW10      29.70R
AIKEN          FAIR      63  55  77 SW12      29.71R
MANNING        FAIR      68  59  73 W26       29.68R
COLUMBIA       MOSUNNY   65  57  75 SW13      29.64R
SUMTER         SUNNY     66  56  71 SW13G22   29.63R
FLORENCE       MOSUNNY   68  59  73 SW15G24   29.63R
MYRTLE BEACH   MOSUNNY   72  63  73 W16       29.66R
N MYRTLE BEACH MOSUNNY   72  63  73 SW14      29.64R

$$

GAZ063-065-086>088-099>101-113>116-118-119-134>141-150-251400-
...SOUTHEAST GEORGIA...

CITY           SKY/WX    TMP DP  RH WIND       PRES   REMARKS
SAVANNAH ARPT  CLOUDY    68  58  70 SW12      29.74S
HUNTER AAF     PTSUNNY   66  64  90 SW9       29.72R
FORT STEWART   MOSUNNY   67  57  70 W13       29.72S
STATESBORO     SUNNY     66  59  77 W13G18    29.74R
SYLVANIA       SUNNY     65  59  81 W7G16     29.74R
CLAXTON        FAIR      66  62  86 SW10G17   29.75R

...CSRA...CENTRAL AND FAR SOUTHEAST GEORGIA...

CITY           SKY/WX    TMP DP  RH WIND       PRES   REMARKS
THOMSON        CLOUDY    62  55  80 NW13G18   29.76R
AUGUSTA-BUSH   MOSUNNY   65  58  78 W13       29.69R
AUGUSTA-DANIEL MOSUNNY   63  55  75 VRB7      29.69R
SWAINSBORO     PTSUNNY   63  57  82 W9G17     29.75R
VIDALIA        MOSUNNY   64  59  82 W10       29.76R
EASTMAN        FAIR      65  48  55 W13G20    29.81R
HAZLEHURST     FAIR      66  59  78 W9        29.77R
ALMA           SUNNY     66  57  72 W10       29.77R
WAYCROSS       PTSUNNY   69  62  76 W8G16     29.79R
JESUP          FAIR      68  55  64 W8        29.78R
BAXLEY         FAIR      68  61  77 W9        29.77R
BRUNSWICK      CLOUDY    70  63  78 SW10G16   29.79R
SAINT SIMONS   CLOUDY    68  59  73 W10G21    29.78R

$$

SCZ027-028-034-036>038-045-046-048>050-GAZ119-141-251400-
...LAKE AND SUPPLEMENTAL COASTAL OBSERVATIONS...

STATION/POSITION TIME  TEMP    WIND        PRES    WAVE   SWELL
                       AIR SEA DIR/SP/G            HT/PER HT/PER/DIR
                 (UTC) (F)     (DEG/KT/KT) (MB)    (FT/S) (FT/S/D)
WINYAH BAY       1230   69     250/ 12     1004.0R
LAKE MURRAY      1220   63     240/ 17/ 21 1002.4
ACE BASIN NERRS  1245   67     230/  3     1006.0S
FORT PULASKI     1300   67     250/  9/ 15 1007.5
SAPELO ISLAND    1300   69     260/ 13     1008.0

$$

ANZ835-935-AMZ111-154-330-350-352-354-370-450-454-472-251400-
...C-MAN AND BUOY OBSERVATIONS...

STATION/POSITION TIME  TEMP    WIND        PRES    WAVE   SWELL
                       AIR SEA DIR/SP/G            HT/PER HT/PER/DIR
                 (UTC) (F)     (DEG/KT/KT) (MB)    (FT/S) (FT/S/D)
BUOY 41004       1310   72 76  240/ 23/ 29 1005.6
BUOY 41008       1250   71 77  240/ 17/ 19 1007.1R   4/ 7   2/100/ 7
FOLLY BEACH CMAN 1300   69     250/  7/ 11 1006.7R
CAPERS NEARSHORE 1308   74 77  250/ 19/ 27 1005.3R
FRIPP NEARSHORE  1308   70 77  260/ 17/ 23 1006.1R


STATION/POSITION TIME  TEMP    WIND        PRES    WAVE   SWELL
                       AIR SEA DIR/SP/G            HT/PER HT/PER/DIR
                 (UTC) (F)     (DEG/KT/KT) (MB)    (FT/S) (FT/S/D)
5E ST. MARYS GA  1300      78                N/A     3/ 6
FRYING PAN BUOY  1310   74 76  240/ 23/ 29 1004.1
BUOY 41025       1250   77 78  230/ 19/ 23 1002.7R   7/ 7   2/140/13
CAPE LOOKOUT NC  1300   76     220/ 13/ 16 1002.2R
BUOY 41002       1250   76 76  200/ 23/ 29 1008.6R  10/ 7   2/180/12
BUOY 41010       1300   80     220/ 16/ 19 1009.8
ST AUGUSTINE FL  1300   72 76  270/  8/ 11 1010.1R


$$



USA.gov is the U.S. government's official web portal to all federal, state and local government web resources and services.